{"data":{"norad_id":62509,"epoch":"2026-05-25T05:28:49.433088Z","epoch_age_seconds":55488,"freshness":"FRESH","line1":"1 62509U 25003Y   26145.22834992  .00010895  00000+0  40479-3 0  9998","line2":"2 62509  42.9989 217.0247 0001246 274.4906  85.5803 15.27584825 78251","mean_motion":15.27584825,"eccentricity":0.0001246,"inclination_deg":42.9989,"raan_deg":217.0247,"arg_perigee_deg":274.4906,"mean_anomaly_deg":85.5803,"bstar":0.00040479,"rev_number":7825,"period_min":94.266450964515,"perigee_km":482.17974630452,"apogee_km":483.88955027927,"semimajor_km":6861.1716482919,"source":"CELESTRAK","updated_at":"2026-05-25T13:38:19.701067Z"}}